x

Eel River - 17nm Wsw Of Eureka, Ca (46022) Wave Buoy

2:50am - Fri 3rd Jul 2015 All times are PDT. -7 hours from GMT.

  • Sig Wave height 6.9ft
  • Swell Direction
  • Peak Period 9s
  • Average Period 6s
  • Wind
    16mph, 18mph gusts
  • Sea Temp 55°f
  • Air Temp 55°f
  • Sea Pressure 1013.6mb
  • Eel River - 17nm Wsw Of Eureka, Ca
  • Eel River - 17nm Wsw Of Eureka, Ca

More Historic Weather Station data

Upgrade to MSW Pro to gain access to the past 30 days of data for over 8000 Wavebouys and Weather Stations around the globe.

Join Pro

Comparision Forecast

View Surf forecast
   
Fri 07/03 2:50am 7ft 9s 6s 16 18 mph 1013.6mb 55f 55f
1:50am 6.5ft 8s 6s 13 16 mph 1013.8mb 55f 55f
12:50am 7ft 9s 7s 11 13 mph 1013.2mb 55f 55f
Thu 07/02 11:50pm 7ft 8s 7s 7 9 mph 1013.2mb 55f 55f
10:50pm 6ft 10s 7s 2 4 mph 1013.4mb 55f 56f
9:50pm 6ft 9s 6s 4 7 mph 1013.4mb 55f 55f
8:50pm 7ft 9s 7s 7 9 mph 1013.4mb 55f 54f
7:50pm 7ft 8s 6s 4 7 mph 1013.9mb 55f 54f
6:50pm 8ft 8s 7s 4 7 mph 1014mb 55f 54f
5:50pm 7ft 8s 7s 7 9 mph 1014.1mb 55f 55f
4:50pm 7.5ft 9s 7s 7 9 mph 1014.6mb 55f 55f
3:50pm 7ft 9s 7s 4
mph
1014.9mb 55f 56f
2:50pm 7ft 7s 7s 7 9 mph 1014.9mb 55f 55f
1:50pm 7ft 9s 7s 4 7 mph 1015.2mb 54f 55f
12:50pm 6.5ft 9s 6s 9 11 mph 1014.6mb 54f 55f
11:50am 7ft 8s 7s 11 13 mph 1014.6mb 54f 54f
10:50am 7ft 8s 7s 9 11 mph 1014.7mb 54f 54f
9:50am 6.5ft 10s 6s 9 11 mph 1014.9mb 54f 55f
8:50am 7ft 9s 7s 7 9 mph 1015.1mb 54f 54f
7:50am 8ft 9s 7s 7 9 mph 1015.3mb 54f 54f
6:50am 7ft 8s 7s 9 11 mph 1015.2mb 54f 54f
5:50am 8ft 10s 7s 13 16 mph 1014.3mb 54f 54f
4:50am 7ft 8s 7s 13 18 mph 1013.3mb 54f 54f
3:50am 7ft 9s 7s 9 11 mph 1013.2mb 54f 53f
2:50am 6.5ft 8s 6s 11 16 mph 1013.3mb 54f 54f
1:50am 6ft 9s 6s 11 16 mph 1013.8mb 54f 55f
12:50am 6ft 8s 6s 11 13 mph 1014.4mb 54f 55f
Wed 07/01 11:50pm 7ft 9s 7s 11 13 mph 1015.1mb 54f 55f
10:50pm 7ft 9s 7s 9 11 mph 1015.8mb 54f 55f
9:50pm 7.5ft 9s 7s 9 11 mph 1015.6mb 54f 55f
8:50pm 8.5ft 9s 7s 7 9 mph 1015.7mb 54f 56f
7:50pm 9ft 9s 7s 9 11 mph 1015.5mb 54f 55f
6:50pm 8ft 9s 6s 9 11 mph 1015.2mb 54f 55f
5:50pm 9ft 8s 7s 7 11 mph 1015.2mb 54f 55f
4:50pm 8.5ft 8s 7s 9 13 mph 1015mb 54f 56f
3:50pm 8.5ft 8s 7s 13 16 mph 1014.9mb 54f 56f
2:50pm 8.5ft 8s 7s 16 18 mph 1014.5mb 55f 56f
1:50pm 9ft 9s 7s 16 20 mph 1013.9mb 55f 56f
12:50pm 8.5ft 9s 7s 16 20 mph 1013.7mb 55f 56f
11:50am 8ft 9s 7s 13 18 mph 1013.4mb 55f 55f
10:50am 8ft 8s 7s 13 18 mph 1012.9mb 54f 55f
9:50am 8ft 8s 6s 18 20 mph 1012.3mb 54f 54f
8:50am 8ft 9s 7s 16 18 mph 1012mb 54f 55f
7:50am 7.5ft 8s 6s 13 18 mph 1011.6mb 54f 54f
6:50am 7.5ft 8s 6s 13 18 mph 1011.7mb 54f 53f
5:50am 7ft 9s 6s 18 22 mph 1011.4mb 54f 53f
4:50am 7.5ft 8s 6s 16 18 mph 1011.5mb 55f 53f
3:50am 8ft 8s 7s 13 16 mph 1011.2mb 55f 54f
2:50am 8.5ft 9s 7s 13 18 mph 1011.4mb 55f 54f
1:50am 8.5ft 8s 7s 16 18 mph 1011.9mb 55f 54f
12:50am 8ft 8s 7s 16 18 mph 1012.3mb 56f 56f
Tue 06/30 11:50pm 7ft 8s 7s 13 16 mph 1012.9mb 55f 56f
10:50pm 7ft 8s 6s 9 11 mph 1013.3mb 55f 56f
9:50pm 6.5ft 8s 6s 7
mph
1013.6mb 55f 55f
8:50pm 6.5ft 7s 6s 13 16 mph 1013.5mb 55f 56f
7:50pm 6ft 7s 5s 16 18 mph 1013.6mb 55f 56f
6:50pm 5.5ft 6s 5s 16 20 mph 1013.8mb 55f 56f
5:50pm 5ft 7s 5s 16 20 mph 1014.1mb 55f 56f
4:50pm 5ft 7s 5s 18 20 mph 1014.4mb 56f 56f
3:50pm 5.5ft 7s 5s 18 20 mph 1014.6mb 56f 56f
2:50pm 5ft 6s 5s 18 20 mph 1015mb 57f 56f
1:50pm 5ft 7s 5s 16 20 mph 1015.5mb 57f 56f
12:50pm 5ft 7s 5s 20 25 mph 1015.8mb 57f 56f
11:50am 5ft 6s 5s 20 22 mph 1016.1mb 57f 56f
10:50am 4.5ft 6s 5s 18 20 mph 1016.1mb 57f 55f
9:50am 4.5ft 6s 5s 16 20 mph 1016.6mb 57f 55f
8:50am 4.5ft 6s 5s 18 20 mph 1016.9mb 57f 55f
7:50am 4ft 5s 5s 20 25 mph 1016.7mb 57f 55f
6:50am 3.5ft 5s 5s 18 22 mph 1016.9mb 57f 55f
5:50am 4ft 4s 4s 18 22 mph 1017.1mb 57f 56f
4:50am 3.5ft 14s 5s 18 22 mph 1017.4mb 57f 56f
3:50am 3.5ft 8s 5s 20 25 mph 1017.5mb 58f 55f
2:50am 3.5ft 14s 4s 18 22 mph 1017.8mb 58f 55f
1:50am 3.5ft 15s 5s 18 20 mph 1018mb 57f 55f
12:50am 4ft 14s 5s 18 22 mph 1018.1mb 57f 55f
Mon 06/29 11:50pm 3.5ft 4s 5s 18 22 mph 1018.1mb 57f 55f
10:50pm 3.5ft 4s 5s 18 22 mph 1018.4mb 58f 55f
9:50pm 3.5ft 14s 5s 18 25 mph 1018.2mb 58f 55f
8:50pm 3ft 15s 5s 18 20 mph 1017.9mb 58f 57f
7:50pm 3ft 15s 6s 13 16 mph 1018mb 58f 59f
6:50pm 3ft 15s 6s 13 18 mph 1018mb 59f 58f
5:50pm 3ft 9s 6s 13 16 mph 1018.4mb 59f 58f
4:50pm 3ft 14s 8s 13 16 mph 1018.7mb 59f 58f
3:50pm 3ft 8s 8s 9 11 mph 1018.8mb 59f 58f
2:50pm 3.5ft 8s 8s 9
mph
1018.8mb 59f 58f
1:50pm 3.5ft 15s 8s 9
mph
1019.1mb 59f 58f
12:50pm 3.5ft 9s 8s 7 9 mph 1019.1mb 59f 57f
11:50am 3.5ft 9s 8s 9 11 mph 1019.1mb 58f 57f